[[{"header":{"parameterUnit":"m.s-1","parameterCategory":1,"la1":30.2991,"la2":30.254,"lo1":-89.0895,"lo2":-89.0444,"dy":0.0017,"dx":0.0017,"nx":28,"ny":28,"refTime":"2024-04-20T03:00:00:Z","depth":0,"parameterNumber":2,"parameterNumberName":"U-component_of_WINDS"},"data":[0,0,0,0,0,0,0,0,0,0,0,0,0,0,0,0,0,0,0,0,0,0,0,0,0,0,0,0,0,0,0,0,0,0,0,0,0,0,0,0,0,0,0,0,0,0,0,0,0,0,0,0,0,0,0,0,0,0,0.9135,0.9137,0,0.9294,0.9295,0.9297,0.9343,0.9342,0.9341,0.9341,0.9505,0.951,0.9515,0,0,0,0,0,0,0,0,0,0,0,0,0,0.8872,0.8877,0.9135,0.9137,0.9139,0.9293,0.9295,0.9298,0.9343,0.9342,0.9341,0.934,0.9503,0.9509,0.9515,0,0,0,0,0,0,0,0,0,0,0,0,0,0.9004,0.8878,0.9135,0.918,0.9186,0.9293,0.9296,0.9298,0.9343,0.9342,0.9341,0.934,0.9501,0.9508,0.9516,0.9589,0,0,0.954,0.9543,0,0,0,0,0,0,0,0,0.8996,0.9013,0.9172,0.9177,0.9184,0.9297,0.9263,0.9396,0.9344,0.9284,0.9341,0.9339,0.9437,0.945,0.9482,0.9597,0.9604,0.954,0.9545,0.9548,0.9551,0,0,0,0,0,0,0,0.8987,0.9007,0.9198,0.9174,0.9181,0.9193,0.921,0.9288,0.9366,0.9289,0.9293,0.9311,0.944,0.9475,0.9486,0.9607,0.954,0.9547,0.9552,0.9555,0.9788,0.9789,0,0,0,0,0,0,0.897,0.8999,0.9193,0.9203,0.9085,0.9199,0.9218,0.9262,0.9365,0.9379,0.9312,0.9312,0.9462,0.9477,0.9492,0.9584,0.9548,0.9556,0.956,0.9786,0.9788,0.979,0,0,0,0,0,0,0.8964,0.8987,0.9186,0.9102,0.9128,0.9205,0.9254,0.9266,0.9301,0.9382,0.9396,0.9333,0.9462,0.9481,0.9564,0.9591,0.9559,0.9566,0.9785,0.9787,0.9789,0.9769,0,0,0,0,0,0,0.8957,0.8985,0.9013,0.9102,0.9132,0.9256,0.9255,0.927,0.9314,0.9316,0.9406,0.9419,0.9462,0.9553,0.9572,0.9601,0.9572,0.9783,0.9786,0.9788,0.9767,0.977,0.9772,0,0,0,0,0,0.8947,0.9002,0.9015,0.9038,0.917,0.9257,0.9275,0.9322,0.9316,0.9345,0.9397,0.9417,0.9584,0.9561,0.9583,0.9614,0.9781,0.9785,0.9788,0.9766,0.977,0.9772,0,0,0,0,0,0,0.8915,0.9015,0.903,0.9115,0.9177,0.9265,0.9303,0.9324,0.939,0.939,0.9446,0.9466,0.9545,0.9588,0.956,0.969,0.9683,0.9691,0.9659,0.9663,0.9665,0.9653,0.9579,0,0,0,0,0,0.8918,0.898,0.9064,0.9131,0.9161,0.9227,0.9267,0.9298,0.9365,0.9391,0.9449,0.9514,0.9581,0.9624,0.9691,0.9774,0.9793,0.9806,0.9808,0.981,0.9816,0.9862,0.9868,0.9801,0.9801,0.9801,0,0,0.8925,0.8987,0.9023,0.9126,0.9178,0.9241,0.9249,0.9316,0.9363,0.9402,0.9483,0.9528,0.9604,0.9686,0.9726,0.9725,0.9839,0.9814,0.9815,0.9821,0.9866,0.9873,0.9878,0.9804,0.9803,0.9803,0,0,0.8969,0.9022,0.9084,0.9135,0.9213,0.9256,0.927,0.9355,0.9385,0.9468,0.9498,0.9555,0.967,0.9722,0.9764,0.9825,0.9845,0.9845,0.9858,0.9902,0.9907,0.9912,0.9934,0.9941,0.9851,0.9851,0.9851,0,0.8968,0.9064,0.9113,0.9178,0.9222,0.9259,0.9321,0.9368,0.9464,0.9494,0.9491,0.9635,0.9688,0.9783,0.9798,0.9831,0.9849,0.9836,0.9903,0.9908,0.9914,0.9934,0.9942,0.9851,0.9851,0.9851,0.9851,0,0.9058,0.9124,0.9164,0.9254,0.9303,0.9366,0.9424,0.9468,0.9494,0.9537,0.962,0.9685,0.9765,0.9789,0.9817,0.9888,0.9884,0.9891,0.9886,0.9918,0.9939,0.9948,0.985,0.985,0.985,0.9851,0,0,0.9088,0.9203,0.9217,0.9258,0.9346,0.9398,0.9462,0.9539,0.9575,0.9639,0.9694,0.9789,0.9796,0.9843,0.9876,0.9914,0.9958,0.9917,0.9919,0.9921,1.0039,1.0033,1.0042,0.9971,0.9973,0.9974,1.0033,0,0.9143,0.9259,0.9304,0.9399,0.946,0.9495,0.9551,0.961,0.9652,0.9709,0.9755,0.9822,0.9825,0.9854,0.9893,0.9944,0.9982,0.994,1.0023,1.0025,1.0003,1.0053,1.0047,1.0099,1.0041,1.0042,1.0043,0,0.9223,0.9287,0.9387,0.9466,0.9494,0.9543,0.9616,0.9671,0.9739,0.9767,0.9818,0.9848,0.9916,0.9906,1.0,0.9971,1.0007,1.0036,1.004,1.0049,1.0036,1.0063,1.0117,1.0124,1.0057,1.0056,1.0055,0,0.9234,0.9345,0.9419,0.9453,0.9548,0.9581,0.9622,0.9689,0.9731,0.9796,0.9824,0.9895,0.9934,0.9988,1.0037,1.0025,1.0126,1.012,1.0151,1.0149,1.0171,1.0169,1.023,1.0194,1.0194,1.0194,1.0194,0,0.9291,0.935,0.9425,0.9471,0.9538,0.9589,0.9655,0.9698,0.9757,0.9811,0.9846,0.9896,0.9957,1.0015,1.0053,1.0124,1.0142,1.0166,1.0175,1.0163,1.016,1.0187,1.0185,1.0196,1.0196,1.0195,1.0195,0,0.9314,0.9367,0.945,0.9532,0.9553,0.96,0.967,0.9715,0.9757,0.9825,0.9844,0.9911,0.998,1.0034,1.0125,1.015,1.0226,1.0236,1.0203,1.0208,1.0235,1.0231,1.0317,1.033,1.0284,1.0285,1.0285,0,0.9347,0.9394,0.948,0.9518,0.9559,0.9621,0.9664,0.9715,0.9759,0.9839,0.9874,0.9946,1.0007,1.0116,1.0173,1.0242,1.0254,1.0279,1.0265,1.025,1.0254,1.025,1.0255,1.0281,1.0281,1.0281,1.0281,0,0.9399,0.9422,0.9484,0.9554,0.9604,0.9662,0.972,0.975,0.9811,0.9859,0.993,0.9977,1.0068,1.0139,1.0214,1.0256,1.0279,1.0285,1.0296,1.0284,1.0262,1.0273,1.0207,1.0283,1.0283,1.0283,1.0283,1.0283,0.9428,0.9471,0.9538,0.9604,0.9653,0.9707,0.9753,0.98,0.986,0.9939,0.9965,1.0038,1.0104,1.0206,1.0249,1.0306,1.0307,1.0323,1.0327,1.033,1.0328,1.0252,1.032,1.032,1.032,1.032,1.032,0,0.9481,0.9526,0.9586,0.9666,0.9719,0.9735,0.98,0.9842,0.9906,0.9965,1.0023,1.0104,1.0172,1.0233,1.0304,1.0339,1.0351,1.0356,1.0354,1.0363,1.0324,1.0307,1.0344,1.0344,1.0344,1.0344,1.0344,1.0344,0.9515,0.9588,0.9618,0.9715,0.976,0.9831,0.9867,0.9916,0.9963,1.0051,1.0108,1.0147,1.0207,1.0282,1.0345,1.0361,1.0386,1.0387,1.0406,1.0369,1.0366,1.0363,1.0347,1.0392,1.0392,1.044,1.0441,1.0441]},{"header":{"parameterUnit":"m.s-1","parameterCategory":1,"la1":30.2991,"la2":30.254,"lo1":-89.0895,"lo2":-89.0444,"dy":0.0017,"dx":0.0017,"nx":28,"ny":28,"refTime":"2024-04-20T03:00:00:Z","depth":0,"parameterNumber":3,"parameterNumberName":"V-component_of_WINDS"},"data":[0,0,0,0,0,0,0,0,0,0,0,0,0,0,0,0,0,0,0,0,0,0,0,0,0,0,0,0,0,0,0,0,0,0,0,0,0,0,0,0,0,0,0,0,0,0,0,0,0,0,0,0,0,0,0,0,0,0,3.9984,3.9984,0,3.9933,3.9933,3.9932,3.9893,3.9892,3.9892,3.9892,3.9835,3.9834,3.9833,0,0,0,0,0,0,0,0,0,0,0,0,0,4.0044,4.0043,3.9984,3.9984,3.9983,3.9933,3.9933,3.9932,3.9893,3.9892,3.9892,3.9891,3.9835,3.9834,3.9833,0,0,0,0,0,0,0,0,0,0,0,0,0,4.0008,4.0043,3.9984,3.9957,3.9955,3.9933,3.9933,3.9932,3.9893,3.9892,3.9892,3.9891,3.9836,3.9834,3.9832,3.9832,0,0,3.9827,3.9826,0,0,0,0,0,0,0,0,4.001,4.0006,3.9962,3.9959,3.9956,3.9919,3.9933,3.9898,3.9893,3.9916,3.9892,3.9891,3.9863,3.9859,3.985,3.983,3.9827,3.9827,3.9826,3.9825,3.9825,0,0,0,0,0,0,0,4.0012,4.0008,3.9964,3.9961,3.9958,3.9947,3.9941,3.9926,3.9893,3.9914,3.9911,3.9906,3.9861,3.9852,3.9849,3.9826,3.9827,3.9825,3.9824,3.9824,3.9803,3.9804,0,0,0,0,0,0,4.002,4.001,3.9965,3.9962,3.9982,3.9946,3.994,3.9931,3.9893,3.9887,3.9906,3.9904,3.9856,3.9851,3.9847,3.9845,3.9825,3.9823,3.9822,3.9803,3.9804,3.9804,0,0,0,0,0,0,4.0021,4.0016,3.9967,3.9985,3.9978,3.9946,3.9936,3.993,3.9922,3.9887,3.9881,3.9904,3.9855,3.9849,3.9837,3.9842,3.9823,3.9821,3.9802,3.9803,3.9804,3.9841,0,0,0,0,0,0,4.0023,4.0017,4.0017,3.9986,3.9978,3.996,3.9937,3.993,3.9919,3.9916,3.9883,3.9877,3.9854,3.984,3.9835,3.984,3.982,3.9802,3.9803,3.9804,3.9839,3.9843,3.9846,0,0,0,0,0,4.0025,4.0029,4.0018,4.0012,3.9978,3.996,3.9955,3.993,3.992,3.992,3.9898,3.9878,3.9842,3.9839,3.9833,3.9837,3.9801,3.9802,3.9804,3.9838,3.9842,3.9846,0,0,0,0,0,0,4.006,4.0024,4.0011,4.0005,3.9986,3.9954,3.9953,3.9936,3.9918,3.9916,3.9884,3.9876,3.9868,3.9851,3.9847,3.9835,3.9819,3.9819,3.9847,3.9851,3.9855,3.9859,3.9818,0,0,0,0,0,4.0068,4.0057,4.0026,4.0023,4.0014,3.9985,3.9977,3.9959,3.9937,3.9929,3.9906,3.9885,3.9869,3.9859,3.9842,3.9836,3.9829,3.9836,3.984,3.9843,3.9844,3.984,3.9843,3.9808,3.9808,3.9808,0,0,4.0082,4.0061,4.0056,4.003,4.0013,4.0002,3.9979,3.9968,3.996,3.9927,3.9914,3.9897,3.9871,3.9862,3.9857,3.9848,3.9852,3.9845,3.9847,3.9846,3.9842,3.9845,3.9848,3.9809,3.9809,3.9809,0,0,4.0103,4.0086,4.0082,4.0067,4.0042,4.0023,4.0022,3.9992,3.998,3.9967,3.9943,3.9931,3.9904,3.9887,3.9875,3.989,3.9872,3.9885,3.9904,3.9901,3.9904,3.9906,3.9912,3.9915,3.9886,3.9886,3.9886,0,4.0123,4.0108,4.0082,4.0074,4.0063,4.0034,4.003,4.0015,3.9986,3.9979,3.9969,3.9936,3.9916,3.9903,3.9907,3.9898,3.9896,3.9889,3.9906,3.9908,3.991,3.9915,3.9918,3.9888,3.9888,3.9888,3.9887,0,4.0135,4.0124,4.0124,4.0099,4.0088,4.0081,4.0054,4.0045,4.0029,4.001,3.9997,3.9973,3.9952,3.9947,3.9929,3.9932,3.9927,3.9912,3.9895,3.9915,3.992,3.9922,3.9891,3.989,3.989,3.9889,0,0,4.0176,4.0138,4.0138,4.0127,4.0098,4.0089,4.0081,4.0062,4.0055,4.0036,4.0028,4.0007,3.9993,3.9979,3.996,3.9957,3.9972,3.9942,3.9941,3.9949,3.9973,3.9986,3.9989,3.9959,3.9959,3.9959,3.9976,0,4.0193,4.018,4.0157,4.015,4.014,4.0113,4.0106,4.0087,4.0069,4.0057,4.0037,4.0023,4.0005,3.9997,3.9993,3.9971,3.9976,3.9969,3.9951,3.9951,3.996,3.9991,4.0003,4.002,3.9977,3.9978,3.9978,0,4.0212,4.0196,4.0189,4.0162,4.0157,4.0152,4.0132,4.0121,4.0099,4.0086,4.0072,4.0051,4.004,4.0025,4.001,4.0006,3.9997,3.9985,3.9985,3.9983,3.9966,3.999,4.0025,4.0028,3.998,3.998,3.998,0,4.0244,4.0221,4.0214,4.0205,4.0173,4.017,4.0156,4.0134,4.0124,4.0106,4.0099,4.008,4.007,4.0055,4.0029,4.002,4.0017,3.9999,4.0006,4.0007,4.0007,4.0008,4.0042,4.0,4.0,4.0,4.0,0,4.0266,4.0263,4.0229,4.0225,4.022,4.0193,4.0189,4.0172,4.0153,4.0144,4.0118,4.011,4.0077,4.0065,4.0044,4.0035,4.003,4.0019,4.0014,4.0022,4.0024,4.0016,4.0015,4.0001,4.0,4.0,4.0,0,4.0302,4.0279,4.027,4.0241,4.0233,4.0232,4.0206,4.02,4.0182,4.0171,4.0167,4.0137,4.0122,4.0095,4.007,4.0057,4.0052,4.0042,4.006,4.0057,4.0066,4.0066,4.0097,4.01,4.0056,4.0057,4.0057,0,4.0318,4.0316,4.0287,4.028,4.0268,4.0257,4.0248,4.022,4.0211,4.0186,4.0184,4.0167,4.0152,4.0128,4.0103,4.0085,4.0075,4.0087,4.0072,4.0081,4.0077,4.0078,4.0078,4.0091,4.0092,4.0092,4.0093,0,4.035,4.0339,4.0327,4.0311,4.03,4.0286,4.027,4.0265,4.0234,4.0225,4.021,4.0199,4.0176,4.0159,4.0138,4.0122,4.0102,4.0098,4.0099,4.0107,4.0119,4.0114,4.0071,4.0097,4.0097,4.0096,4.0096,4.0096,4.0377,4.0373,4.0353,4.0341,4.0326,4.0313,4.0306,4.0288,4.0275,4.0255,4.0239,4.0226,4.0204,4.0173,4.0159,4.0147,4.0138,4.0139,4.0139,4.014,4.0144,4.012,4.0143,4.0142,4.0142,4.0142,4.0142,0,4.0408,4.0394,4.0383,4.0362,4.0352,4.0336,4.0318,4.031,4.03,4.0281,4.0268,4.0251,4.0235,4.0209,4.0191,4.0186,4.0177,4.0182,4.0183,4.018,4.0152,4.0154,4.019,4.019,4.019,4.019,4.019,4.019,4.0423,4.0417,4.0404,4.039,4.0376,4.0364,4.0355,4.0342,4.0327,4.031,4.0297,4.0281,4.026,4.024,4.0225,4.0217,4.0212,4.0221,4.0211,4.0186,4.0181,4.0177,4.0179,4.022,4.022,4.0239,4.0239,4.024]}]]